GW5243 Weather Reports


Display with metric or nautical units.
time (UTC)temp
F
wind
direction
speed
MPH
gust
MPH
rain 1hr
in
rain 24hr
in
rain mn
in
humidity
%
barometer
mb
20260509061517 30 325 0.0 0.0 0.00 0.00 0.00 91 1013.0
20260509060022 30 325 0.0 0.0 0.00 0.00 0.00 91 1013.0
20260509054529 30 325 0.0 0.0 0.00 0.00 0.00 90 1013.0
20260509053035 31 325 0.0 0.0 0.00 0.00 0.00 90 1012.8
20260509051523 31 325 0.0 0.0 0.00 0.00 0.00 90 1012.7
20260509050019 31 325 0.0 0.0 0.00 0.00 0.00 89 1012.5
20260509044522 32 325 0.0 0.0 0.00 0.00 0.00 88 1012.4
20260509043026 32 325 0.0 0.0 0.00 0.00 0.00 88 1012.4
20260509041528 33 325 0.0 0.0 0.00 0.00 0.00 87 1012.3
20260509040015 33 325 0.0 0.0 0.00 0.00 0.00 86 1012.4
20260509034525 34 325 0.0 0.0 0.00 0.00 0.00 85 1012.3
20260509033025 35 325 0.0 0.0 0.00 0.00 0.00 85 1012.2
20260509031532 35 325 0.0 2.0 0.00 0.00 0.00 84 1012.0
20260509030028 36 305 0.0 2.0 0.00 0.00 0.00 83 1012.0
20260509024517 37 313 0.0 2.0 0.00 0.00 0.00 81 1011.8
20260509023024 37 310 0.0 0.0 0.00 0.00 0.00 81 1011.7
20260509021527 38 310 0.0 0.0 0.00 0.00 0.00 78 1011.5
20260509020032 40 310 0.0 0.0 0.00 0.00 0.00 77 1011.2
20260509014538 40 310 0.0 0.0 0.00 0.00 0.00 76 1011.1
20260509013017 41 310 0.0 0.0 0.00 0.00 0.00 75 1010.9
20260509011520 42 310 0.0 2.0 0.00 0.00 0.00 73 1010.7
20260509010009 43 212 0.0 0.0 0.00 0.00 0.00 71 1010.4
20260509004516 44 211 0.0 0.0 0.00 0.00 0.00 66 1010.2
20260509003028 46 130 0.0 2.0 0.00 0.00 0.00 61 1009.9
20260509001519 47 116 0.0 2.0 0.00 0.00 0.00 60 1009.8
20260509000023 48 44 1.0 3.0 0.00 0.00 0.00 58 1009.6
20260508234510 48 148 0.0 4.0 0.00 0.00 0.00 57 1009.3
20260508233012 49 119 1.0 4.0 0.00 0.00 0.00 56 1009.2
20260508231518 49 130 1.0 5.0 0.00 0.00 0.00 54 1009.0
20260508230022 50 217 2.0 7.0 0.00 0.00 0.00 51 1008.8
20260508224508 50 203 2.0 10.0 0.00 0.00 0.00 49 1008.8
20260508223022 52 206 1.0 10.0 0.00 0.00 0.00 47 1008.6
20260508221516 53 128 1.0 5.0 0.00 0.00 0.00 38 1008.5
20260508220022 53 184 1.0 6.0 0.00 0.00 0.00 38 1008.4
20260508214527 52 25 2.0 6.0 0.00 0.00 0.00 41 1008.2
20260508213008 52 92 1.0 4.0 0.00 0.00 0.00 38 1008.3
20260508211525 52 329 1.0 9.0 0.00 0.00 0.00 40 1008.2
20260508210018 52 24 1.0 9.0 0.00 0.00 0.00 39 1008.1
20260508204522 52 334 4.0 8.0 0.00 0.00 0.00 38 1008.0
20260508203028 52 301 4.0 8.0 0.00 0.00 0.00 38 1007.9
20260508201510 52 267 2.0 8.0 0.00 0.00 0.00 37 1007.8
20260508200024 52 205 3.0 6.0 0.00 0.00 0.00 39 1007.9
20260508194520 52 242 0.0 8.0 0.00 0.00 0.00 38 1008.0
20260508193024 53 92 3.0 11.0 0.00 0.00 0.00 43 1008.0
20260508191529 52 165 4.0 10.0 0.00 0.00 0.00 37 1008.0
20260508190018 52 272 2.0 8.0 0.00 0.00 0.00 38 1008.0
20260508184521 52 240 1.0 8.0 0.00 0.00 0.00 41 1008.0
20260508183024 52 25 3.0 9.0 0.00 0.00 0.00 40 1008.0
20260508181509 52 250 0.0 7.0 0.00 0.00 0.00 40 1008.1
20260508180010 51 242 2.0 11.0 0.00 0.00 0.00 41 1008.2
20260508174518 51 279 2.0 10.0 0.00 0.00 0.00 42 1008.4
20260508173020 51 254 3.0 8.0 0.00 0.00 0.00 44 1008.4
20260508171529 50 216 3.0 12.0 0.00 0.00 0.00 41 1008.5
20260508170010 50 328 3.0 8.0 0.00 0.00 0.00 41 1008.5
20260508164515 49 301 2.0 11.0 0.00 0.00 0.00 41 1008.5
20260508163020 50 261 2.0 8.0 0.00 0.00 0.00 42 1008.5
20260508161524 50 325 4.0 10.0 0.00 0.00 0.00 41 1008.5
20260508160026 50 67 4.0 12.0 0.00 0.00 0.00 42 1008.2
20260508154511 51 13 2.0 7.0 0.00 0.00 0.00 40 1008.0
20260508153018 51 23 5.0 14.0 0.00 0.00 0.00 37 1008.1
20260508151530 50 290 2.0 11.0 0.00 0.00 0.00 43 1008.0
20260508150028 50 252 4.0 16.0 0.00 0.00 0.00 37 1008.2
20260508144528 50 282 4.0 12.0 0.00 0.00 0.00 38 1008.2
20260508143015 51 277 6.0 13.0 0.00 0.00 0.00 35 1008.4
20260508141520 51 317 5.0 15.0 0.00 0.00 0.00 35 1008.4
20260508140033 51 209 8.0 17.0 0.00 0.00 0.00 37 1008.3
20260508134526 50 176 4.0 9.0 0.00 0.00 0.00 39 1008.5
20260508133026 50 142 2.0 8.0 0.00 0.00 0.00 44 1008.7
20260508131518 48 315 2.0 8.0 0.00 0.00 0.00 50 1008.9
20260508130035 47 254 2.0 6.0 0.00 0.00 0.00 55 1009.1
20260508124533 45 218 2.0 6.0 0.00 0.00 0.00 58 1009.0
20260508123034 44 128 0.0 3.0 0.00 0.00 0.00 60 1009.0
20260508121528 44 337 1.0 5.0 0.00 0.00 0.00 60 1009.0
20260508120019 42 336 1.0 6.0 0.00 0.00 0.00 66 1009.0
20260508114527 41 352 0.0 8.0 0.00 0.00 0.00 67 1009.0
20260508113024 39 211 1.0 6.0 0.00 0.00 0.00 71 1008.8
20260508111526 35 284 0.0 4.0 0.00 0.00 0.00 82 1008.8
20260508110004 31 5 0.0 1.0 0.00 0.00 0.00 95 1008.7
20260508104504 30 24 0.0 2.0 0.00 0.00 0.00 95 1008.5
20260508103009 29 36 0.0 0.0 0.00 0.00 0.00 94 1008.4
20260508101527 0 0.0 0.0 0.00 0.00 0.00 1008.4
20260508100029 0 0.0 0.0 0.00 0.00 0.00 1008.1
20260508094542 0 0.0 0.0 0.00 0.00 0.00 1007.9
20260508093032 0 0.0 0.0 0.00 0.00 0.00 1007.7
20260508091547 0 0.0 0.0 0.00 0.00 0.00 1007.7
20260508090037 0 0.0 0.0 0.00 0.00 0.00 1007.7
20260508084530 0 0.0 0.0 0.00 0.00 0.00 1007.7
20260508083030 0 0.0 0.0 0.00 0.00 0.00 1007.7
20260508081538 0 0.0 0.0 0.00 0.00 0.00 1007.6
20260508080040 28 0.0 0.0 0.00 0.00 0.00 1007.4
20260508074506 28 340 0.0 0.0 0.00 0.00 0.00 92 1007.1
20260508073011 29 340 0.0 0.0 0.00 0.00 0.00 91 1007.2
20260508071521 29 340 0.0 0.0 0.00 0.00 0.00 91 1007.2
20260508070023 29 340 0.0 2.0 0.00 0.00 0.00 91 1007.3
20260508064507 29 275 0.0 0.0 0.00 0.00 0.00 90 1007.3
20260508063007 30 275 0.0 0.0 0.00 0.00 0.00 89 1007.3